Location: Fort Wayne
(41.1310°N, 85.1290°W)
Time: 10:22:17
(UTC-04:00)

Cosmos 2219 Rocket - Visible Passes

Search period start: 27 March 2017 00:00
Search period end: 06 April 2017 00:00
Orbit: 829 x 846 km, 71.0° (Epoch: 25 March)

Date Brightness Start Highest point End Pass type
(mag) Time Alt. Az. Time Alt. Az. Time Alt. Az.
27 Mar 2.5 05:33:13 24° S 05:36:33 63° ESE 05:42:04 10° NNE visible
28 Mar 2.6 05:17:49 33° S 05:20:13 58° ESE 05:25:42 10° NNE visible
28 Mar 3.5 07:00:18 10° WSW 07:04:34 22° NW 07:08:51 10° N visible
29 Mar 2.7 05:02:20 41° SSE 05:03:53 54° ESE 05:09:19 10° NNE visible
29 Mar 3.4 06:44:05 11° WSW 06:48:10 23° NW 06:52:36 10° N visible
30 Mar 2.8 04:46:46 46° SE 04:47:33 49° ESE 04:52:56 10° NE visible
30 Mar 3.4 06:28:30 15° W 06:31:46 25° NW 06:36:20 10° N visible
31 Mar 2.9 04:31:07 45° ESE 04:31:14 45° ESE 04:36:33 10° NE visible
31 Mar 3.3 06:12:51 19° W 06:15:22 27° NW 06:20:05 10° N visible
01 Apr 3.1 04:15:24 41° E 04:15:24 41° E 04:20:09 10° NE visible
01 Apr 3.2 05:57:08 24° W 05:58:59 28° NW 06:03:48 10° N visible
02 Apr 3.4 03:59:38 35° E 03:59:38 35° E 04:03:45 10° NE visible
02 Apr 3.1 05:41:21 28° W 05:42:36 30° WNW 05:47:32 10° N visible
03 Apr 3.7 03:43:48 30° ENE 03:43:48 30° ENE 03:47:20 10° NE visible
03 Apr 3.0 05:25:32 32° WNW 05:26:13 33° WNW 05:31:14 10° N visible
04 Apr 4.0 03:27:57 26° ENE 03:27:57 26° ENE 03:30:55 10° NE visible
04 Apr 2.9 05:09:40 35° WNW 05:09:50 35° WNW 05:14:57 10° N visible
05 Apr 4.2 03:12:03 22° ENE 03:12:03 22° ENE 03:14:30 10° NE visible
05 Apr 2.9 04:53:46 37° NW 04:53:46 37° NW 04:58:40 10° N visible
